User: anonymous   Login
Location: ??????
(41.3164°N, 22.6615°E)
Time: 08:06:42
(UTC+00:00)
Language:

CZ-2C R/B - Orbit

View from above orbital plane
View from above orbital plane
View from above satellite
View from above satellite

Ground track
Ground track

The orbit data is extracted from the following two-line orbital elements,

1 31114U 07010B   23342.42012809  .00000159  00000-0  92504-4 0  9997
2 31114  98.3033 125.0325 0059829 165.8689 194.4179 14.19672170863024
Epoch (UTC): 08 December 2023 10:04:59
Eccentricity: 0.0059829
inclination: 98.3033°
perigee height: 783 km
apogee height: 869 km
right ascension of ascending node: 125.0325°
argument of perigee: 165.8689°
revolutions per day: 14.19672170
mean anomaly at epoch: 194.4179°
orbit number at epoch: 86302

The dashed part of the orbit path shows where the satellite is in the earth's shadow,  

DLR